Time,TemperatureF,DewpointF,PressureIn,WindDirection,WindDirectionDegrees,WindSpeedMPH,WindSpeedGustMPH,Humidity,HourlyPrecipIn,Conditions,Clouds,dailyrainin,SoftwareType,DateUTC
2013-02-24 00:00:00,4.9,0.4,29.94,NNW,342,0.0,0.0,81,0.00,,,0.00,vanprod-2.3,2013-02-24 06:00:00,
2013-02-24 00:05:00,4.7,0.2,29.94,NNW,342,0.0,0.0,81,0.00,,,0.00,vanprod-2.3,2013-02-24 06:05:00,
2013-02-24 00:10:00,4.5,0.0,29.94,NNW,342,0.0,0.0,81,0.00,,,0.00,vanprod-2.3,2013-02-24 06:10:00,
2013-02-24 00:15:00,4.3,-0.2,29.94,NNW,342,0.0,0.0,81,0.00,,,0.00,vanprod-2.3,2013-02-24 06:15:00,
2013-02-24 00:20:00,4.3,-0.8,29.94,NNW,342,0.0,0.0,79,0.00,,,0.00,vanprod-2.3,2013-02-24 06:20:00,
2013-02-24 00:25:00,3.8,-1.2,29.95,NNW,342,0.0,0.0,79,0.00,,,0.00,vanprod-2.3,2013-02-24 06:25:00,
2013-02-24 00:30:00,3.6,-1.4,29.95,NNW,342,0.0,0.0,79,0.00,,,0.00,vanprod-2.3,2013-02-24 06:30:00,
2013-02-24 00:35:00,3.4,-1.4,29.95,NNW,342,0.0,0.0,80,0.00,,,0.00,vanprod-2.3,2013-02-24 06:35:00,
2013-02-24 00:40:00,3.2,-1.8,29.95,NNW,342,0.0,0.0,79,0.00,,,0.00,vanprod-2.3,2013-02-24 06:40:00,
2013-02-24 00:45:00,3.0,-2.0,29.95,NNW,342,0.0,0.0,79,0.00,,,0.00,vanprod-2.3,2013-02-24 06:45:00,
2013-02-24 00:50:00,3.0,-2.0,29.95,NNW,342,0.0,0.0,79,0.00,,,0.00,vanprod-2.3,2013-02-24 06:50:00,
2013-02-24 00:55:00,2.5,-2.8,29.95,NNW,342,0.0,0.0,78,0.00,,,0.00,vanprod-2.3,2013-02-24 06:55:00,
2013-02-24 01:00:00,1.7,-3.6,29.96,NNW,342,0.0,0.0,78,0.00,,,0.00,vanprod-2.3,2013-02-24 07:00:00,
2013-02-24 01:05:00,1.3,-3.9,29.95,NNW,342,0.0,0.0,78,0.00,,,0.00,vanprod-2.3,2013-02-24 07:05:00,
2013-02-24 01:10:00,1.0,-4.2,29.95,NNW,342,0.0,0.0,78,0.00,,,0.00,vanprod-2.3,2013-02-24 07:10:00,
2013-02-24 01:15:00,1.0,-4.2,29.95,NNW,342,1.0,1.0,78,0.00,,,0.00,vanprod-2.3,2013-02-24 07:15:00,
2013-02-24 01:20:00,1.0,-4.0,29.95,NNW,342,0.0,0.0,79,0.00,,,0.00,vanprod-2.3,2013-02-24 07:20:00,
2013-02-24 01:25:00,1.0,-4.0,29.95,NNW,342,0.0,0.0,79,0.00,,,0.00,vanprod-2.3,2013-02-24 07:25:00,
2013-02-24 01:30:00,0.8,-4.2,29.95,NNW,342,1.0,1.0,79,0.00,,,0.00,vanprod-2.3,2013-02-24 07:30:00,
2013-02-24 01:35:00,0.4,-4.8,29.95,NNW,342,0.0,0.0,78,0.00,,,0.00,vanprod-2.3,2013-02-24 07:35:00,
2013-02-24 01:40:00,0.2,-4.8,29.95,NNW,342,0.0,0.0,79,0.00,,,0.00,vanprod-2.3,2013-02-24 07:40:00,
2013-02-24 01:45:00,0.4,-4.6,29.95,NNW,342,0.0,0.0,79,0.00,,,0.00,vanprod-2.3,2013-02-24 07:45:00,
2013-02-24 01:50:00,0.4,-4.6,29.95,NNW,342,0.0,1.0,79,0.00,,,0.00,vanprod-2.3,2013-02-24 07:50:00,
2013-02-24 01:55:00,0.2,-4.8,29.95,NNW,342,0.0,0.0,79,0.00,,,0.00,vanprod-2.3,2013-02-24 07:55:00,
2013-02-24 02:00:00,0.2,-4.8,29.95,NNW,342,0.0,0.0,79,0.00,,,0.00,vanprod-2.3,2013-02-24 08:00:00,
2013-02-24 02:05:00,0.0,-5.2,29.95,NNW,342,0.0,0.0,78,0.00,,,0.00,vanprod-2.3,2013-02-24 08:05:00,
2013-02-24 02:10:00,-0.4,-5.6,29.95,NNW,342,0.0,0.0,78,0.00,,,0.00,vanprod-2.3,2013-02-24 08:10:00,
2013-02-24 02:15:00,-0.4,-5.3,29.96,NNW,342,0.0,0.0,79,0.00,,,0.00,vanprod-2.3,2013-02-24 08:15:00,
2013-02-24 02:20:00,-0.4,-5.3,29.95,NNW,342,0.0,0.0,79,0.00,,,0.00,vanprod-2.3,2013-02-24 08:20:00,
2013-02-24 02:25:00,-0.4,-5.3,29.96,NNW,342,0.0,0.0,79,0.00,,,0.00,vanprod-2.3,2013-02-24 08:25:00,
2013-02-24 02:30:00,-0.5,-5.4,29.95,NNW,342,1.0,2.0,79,0.00,,,0.00,vanprod-2.3,2013-02-24 08:30:00,
2013-02-24 02:35:00,-0.7,-5.6,29.95,NNW,342,0.0,0.0,79,0.00,,,0.00,vanprod-2.3,2013-02-24 08:35:00,
2013-02-24 02:40:00,-0.9,-5.6,29.95,NNW,342,0.0,0.0,80,0.00,,,0.00,vanprod-2.3,2013-02-24 08:40:00,
2013-02-24 02:45:00,-0.9,-5.3,29.95,NNW,342,0.0,0.0,81,0.00,,,0.00,vanprod-2.3,2013-02-24 08:45:00,
2013-02-24 02:50:00,-1.1,-5.5,29.95,NNW,342,0.0,0.0,81,0.00,,,0.00,vanprod-2.3,2013-02-24 08:50:00,
2013-02-24 02:55:00,-1.1,-5.3,29.95,NNW,342,0.0,0.0,82,0.00,,,0.00,vanprod-2.3,2013-02-24 08:55:00,
2013-02-24 03:00:00,-1.1,-5.0,29.96,NNW,342,0.0,0.0,83,0.00,,,0.00,vanprod-2.3,2013-02-24 09:00:00,
2013-02-24 03:05:00,-1.3,-5.5,29.96,NNW,342,0.0,0.0,82,0.00,,,0.00,vanprod-2.3,2013-02-24 09:05:00,
2013-02-24 03:10:00,-1.5,-5.9,29.96,NNW,342,0.0,0.0,81,0.00,,,0.00,vanprod-2.3,2013-02-24 09:10:00,
2013-02-24 03:15:00,-1.7,-6.4,29.96,NNW,342,0.0,0.0,80,0.00,,,0.00,vanprod-2.3,2013-02-24 09:15:00,
2013-02-24 03:20:00,-1.7,-6.4,29.96,NNW,342,0.0,0.0,80,0.00,,,0.00,vanprod-2.3,2013-02-24 09:20:00,
2013-02-24 03:25:00,-1.7,-6.4,29.96,NNW,342,0.0,0.0,80,0.00,,,0.00,vanprod-2.3,2013-02-24 09:25:00,
2013-02-24 03:30:00,-1.5,-6.2,29.96,NNW,342,0.0,0.0,80,0.00,,,0.00,vanprod-2.3,2013-02-24 09:30:00,
2013-02-24 03:35:00,-1.5,-5.9,29.96,NNW,342,0.0,0.0,81,0.00,,,0.00,vanprod-2.3,2013-02-24 09:35:00,
2013-02-24 03:40:00,-1.5,-5.9,29.96,NNW,342,0.0,0.0,81,0.00,,,0.00,vanprod-2.3,2013-02-24 09:40:00,
2013-02-24 03:45:00,-1.7,-6.1,29.96,NNW,342,0.0,0.0,81,0.00,,,0.00,vanprod-2.3,2013-02-24 09:45:00,
2013-02-24 03:50:00,-1.7,-6.1,29.97,NNW,342,0.0,0.0,81,0.00,,,0.00,vanprod-2.3,2013-02-24 09:50:00,
2013-02-24 03:55:00,-1.7,-6.1,29.97,NNW,342,0.0,1.0,81,0.00,,,0.00,vanprod-2.3,2013-02-24 09:55:00,
2013-02-24 04:00:00,-1.9,-6.3,29.97,NNW,342,0.0,0.0,81,0.00,,,0.00,vanprod-2.3,2013-02-24 10:00:00,
2013-02-24 04:05:00,-2.1,-7.0,29.97,NNW,342,0.0,0.0,79,0.00,,,0.00,vanprod-2.3,2013-02-24 10:05:00,
2013-02-24 04:10:00,-2.3,-7.5,29.97,NNW,342,0.0,0.0,78,0.00,,,0.00,vanprod-2.3,2013-02-24 10:10:00,
2013-02-24 04:15:00,-2.3,-7.5,29.97,NNW,342,0.0,0.0,78,0.00,,,0.00,vanprod-2.3,2013-02-24 10:15:00,
2013-02-24 04:20:00,-2.3,-7.5,29.97,NNW,342,0.0,0.0,78,0.00,,,0.00,vanprod-2.3,2013-02-24 10:20:00,
2013-02-24 04:25:00,-2.3,-7.5,29.97,NNW,342,0.0,0.0,78,0.00,,,0.00,vanprod-2.3,2013-02-24 10:25:00,
2013-02-24 04:30:00,-2.3,-7.5,29.97,NNW,342,0.0,0.0,78,0.00,,,0.00,vanprod-2.3,2013-02-24 10:30:00,
2013-02-24 04:35:00,-2.3,-7.5,29.97,NNW,342,0.0,0.0,78,0.00,,,0.00,vanprod-2.3,2013-02-24 10:35:00,
2013-02-24 04:40:00,-2.1,-7.0,29.97,NNW,342,0.0,0.0,79,0.00,,,0.00,vanprod-2.3,2013-02-24 10:40:00,
2013-02-24 04:45:00,-1.9,-6.8,29.97,NNW,342,0.0,0.0,79,0.00,,,0.00,vanprod-2.3,2013-02-24 10:45:00,
2013-02-24 04:50:00,-1.7,-6.1,29.97,NNW,342,0.0,0.0,81,0.00,,,0.00,vanprod-2.3,2013-02-24 10:50:00,
2013-02-24 04:55:00,-1.5,-5.9,29.97,NNW,342,0.0,0.0,81,0.00,,,0.00,vanprod-2.3,2013-02-24 10:55:00,
2013-02-24 05:00:00,-1.5,-5.6,29.97,NNW,342,1.0,0.0,82,0.00,,,0.00,vanprod-2.3,2013-02-24 11:00:00,
2013-02-24 05:05:00,-1.5,-5.6,29.98,NNW,342,0.0,1.0,82,0.00,,,0.00,vanprod-2.3,2013-02-24 11:05:00,
2013-02-24 05:10:00,-1.9,-6.5,29.98,NNW,342,0.0,0.0,80,0.00,,,0.00,vanprod-2.3,2013-02-24 11:10:00,
2013-02-24 05:15:00,-2.3,-6.9,29.98,NNW,342,0.0,0.0,80,0.00,,,0.00,vanprod-2.3,2013-02-24 11:15:00,
2013-02-24 05:20:00,-2.5,-7.1,29.99,NNW,342,0.0,0.0,80,0.00,,,0.00,vanprod-2.3,2013-02-24 11:20:00,
2013-02-24 05:25:00,-2.7,-7.3,29.99,NNW,342,1.0,1.0,80,0.00,,,0.00,vanprod-2.3,2013-02-24 11:25:00,
2013-02-24 05:30:00,-2.7,-7.3,29.99,NNW,342,0.0,0.0,80,0.00,,,0.00,vanprod-2.3,2013-02-24 11:30:00,
2013-02-24 05:35:00,-2.9,-7.5,29.99,NNW,342,0.0,0.0,80,0.00,,,0.00,vanprod-2.3,2013-02-24 11:35:00,
2013-02-24 05:40:00,-2.9,-7.5,30.00,NNW,342,2.0,2.0,80,0.00,,,0.00,vanprod-2.3,2013-02-24 11:40:00,
2013-02-24 05:45:00,-3.1,-7.7,30.00,NNW,342,1.0,1.0,80,0.00,,,0.00,vanprod-2.3,2013-02-24 11:45:00,
2013-02-24 05:50:00,-3.3,-7.9,30.00,NNW,342,0.0,0.0,80,0.00,,,0.00,vanprod-2.3,2013-02-24 11:50:00,
2013-02-24 05:55:00,-3.1,-7.5,30.00,NNW,342,0.0,0.0,81,0.00,,,0.00,vanprod-2.3,2013-02-24 11:55:00,
2013-02-24 06:00:00,-2.9,-7.3,29.99,NNW,342,0.0,0.0,81,0.00,,,0.00,vanprod-2.3,2013-02-24 12:00:00,
2013-02-24 06:05:00,-2.5,-6.6,29.99,NNW,342,1.0,0.0,82,0.00,,,0.00,vanprod-2.3,2013-02-24 12:05:00,
2013-02-24 06:10:00,-2.1,-6.2,29.99,NNW,342,0.0,0.0,82,0.00,,,0.00,vanprod-2.3,2013-02-24 12:10:00,
2013-02-24 06:15:00,-1.7,-5.8,29.99,NNW,342,0.0,0.0,82,0.00,,,0.00,vanprod-2.3,2013-02-24 12:15:00,
2013-02-24 06:20:00,-1.3,-5.5,29.99,NNW,342,0.0,1.0,82,0.00,,,0.00,vanprod-2.3,2013-02-24 12:20:00,
2013-02-24 06:25:00,-0.9,-4.8,29.99,NNW,342,0.0,0.0,83,0.00,,,0.00,vanprod-2.3,2013-02-24 12:25:00,
2013-02-24 06:30:00,-0.5,-4.4,30.00,NNW,342,0.0,0.0,83,0.00,,,0.00,vanprod-2.3,2013-02-24 12:30:00,
2013-02-24 06:35:00,-0.9,-5.3,30.00,NNW,342,1.0,1.0,81,0.00,,,0.00,vanprod-2.3,2013-02-24 12:35:00,
2013-02-24 06:40:00,-1.3,-6.0,30.00,NNW,342,0.0,0.0,80,0.00,,,0.00,vanprod-2.3,2013-02-24 12:40:00,
2013-02-24 06:45:00,-1.7,-6.4,30.00,NNW,342,1.0,1.0,80,0.00,,,0.00,vanprod-2.3,2013-02-24 12:45:00,
2013-02-24 06:50:00,-1.9,-6.5,30.00,NNW,342,0.0,0.0,80,0.00,,,0.00,vanprod-2.3,2013-02-24 12:50:00,
2013-02-24 06:55:00,-1.9,-6.5,30.00,NNW,342,0.0,0.0,80,0.00,,,0.00,vanprod-2.3,2013-02-24 12:55:00,
2013-02-24 07:00:00,-1.7,-6.1,30.00,NNW,342,1.0,1.0,81,0.00,,,0.00,vanprod-2.3,2013-02-24 13:00:00,
2013-02-24 07:05:00,-1.5,-5.9,30.00,NNW,342,0.0,0.0,81,0.00,,,0.00,vanprod-2.3,2013-02-24 13:05:00,
2013-02-24 07:10:00,-1.1,-5.5,30.00,NNW,342,0.0,0.0,81,0.00,,,0.00,vanprod-2.3,2013-02-24 13:10:00,
2013-02-24 07:15:00,-0.9,-5.3,30.00,NNW,342,1.0,1.0,81,0.00,,,0.00,vanprod-2.3,2013-02-24 13:15:00,
2013-02-24 07:20:00,-0.5,-4.7,30.00,NNW,342,0.0,0.0,82,0.00,,,0.00,vanprod-2.3,2013-02-24 13:20:00,
2013-02-24 07:25:00,-0.2,-4.4,30.00,NNW,342,0.0,0.0,82,0.00,,,0.00,vanprod-2.3,2013-02-24 13:25:00,
2013-02-24 07:30:00,0.0,-4.2,30.00,NNW,342,0.0,0.0,82,0.00,,,0.00,vanprod-2.3,2013-02-24 13:30:00,
2013-02-24 07:35:00,0.0,-4.7,30.00,NNW,342,0.0,0.0,80,0.00,,,0.00,vanprod-2.3,2013-02-24 13:35:00,
2013-02-24 07:40:00,-0.2,-4.9,30.00,NNW,342,0.0,0.0,80,0.00,,,0.00,vanprod-2.3,2013-02-24 13:40:00,
2013-02-24 07:45:00,-0.2,-4.9,30.01,NNW,342,0.0,0.0,80,0.00,,,0.00,vanprod-2.3,2013-02-24 13:45:00,
2013-02-24 07:50:00,-0.2,-4.9,30.01,NNW,342,0.0,0.0,80,0.00,,,0.00,vanprod-2.3,2013-02-24 13:50:00,
2013-02-24 07:55:00,0.0,-4.7,30.01,NNW,342,0.0,1.0,80,0.00,,,0.00,vanprod-2.3,2013-02-24 13:55:00,
2013-02-24 08:00:00,0.0,-4.7,30.02,NNW,342,0.0,0.0,80,0.00,,,0.00,vanprod-2.3,2013-02-24 14:00:00,
2013-02-24 08:05:00,0.2,-4.5,30.02,NNW,342,0.0,0.0,80,0.00,,,0.00,vanprod-2.3,2013-02-24 14:05:00,
2013-02-24 08:10:00,0.4,-4.3,30.02,NNW,342,0.0,1.0,80,0.00,,,0.00,vanprod-2.3,2013-02-24 14:10:00,
2013-02-24 08:15:00,0.6,-4.1,30.02,NNW,342,1.0,1.0,80,0.00,,,0.00,vanprod-2.3,2013-02-24 14:15:00,
2013-02-24 08:20:00,0.8,-3.9,30.03,NNW,342,0.0,0.0,80,0.00,,,0.00,vanprod-2.3,2013-02-24 14:20:00,
2013-02-24 08:25:00,0.8,-3.9,30.03,NNW,342,1.0,1.0,80,0.00,,,0.00,vanprod-2.3,2013-02-24 14:25:00,
2013-02-24 08:30:00,1.0,-3.7,30.03,NNW,342,0.0,1.0,80,0.00,,,0.00,vanprod-2.3,2013-02-24 14:30:00,
2013-02-24 08:35:00,1.2,-3.5,30.03,NNW,342,0.0,0.0,80,0.00,,,0.00,vanprod-2.3,2013-02-24 14:35:00,
2013-02-24 08:40:00,1.5,-3.2,30.03,NNW,342,0.0,0.0,80,0.00,,,0.00,vanprod-2.3,2013-02-24 14:40:00,
2013-02-24 08:45:00,1.7,-2.8,30.03,NNW,342,0.0,0.0,81,0.00,,,0.00,vanprod-2.3,2013-02-24 14:45:00,
2013-02-24 08:50:00,2.3,-2.2,30.03,NNW,342,0.0,0.0,81,0.00,,,0.00,vanprod-2.3,2013-02-24 14:50:00,
2013-02-24 08:55:00,2.7,-1.8,30.03,NNW,342,0.0,1.0,81,0.00,,,0.00,vanprod-2.3,2013-02-24 14:55:00,
2013-02-24 09:00:00,3.2,-1.3,30.04,NNW,342,0.0,0.0,81,0.00,,,0.00,vanprod-2.3,2013-02-24 15:00:00,
2013-02-24 09:05:00,3.6,-0.9,30.04,NNW,342,0.0,0.0,81,0.00,,,0.00,vanprod-2.3,2013-02-24 15:05:00,
2013-02-24 09:10:00,4.0,-0.3,30.04,NNW,342,1.0,1.0,82,0.00,,,0.00,vanprod-2.3,2013-02-24 15:10:00,
2013-02-24 09:15:00,4.2,-0.1,30.05,NNW,342,1.0,1.0,82,0.00,,,0.00,vanprod-2.3,2013-02-24 15:15:00,
2013-02-24 09:20:00,4.2,0.2,30.05,NNW,342,1.0,2.0,83,0.00,,,0.00,vanprod-2.3,2013-02-24 15:20:00,
2013-02-24 09:25:00,4.5,0.5,30.05,NNW,342,0.0,0.0,83,0.00,,,0.00,vanprod-2.3,2013-02-24 15:25:00,
2013-02-24 09:30:00,5.5,1.5,30.05,NNW,342,0.0,0.0,83,0.00,,,0.00,vanprod-2.3,2013-02-24 15:30:00,
2013-02-24 09:35:00,6.2,2.4,30.05,NNW,342,0.0,0.0,84,0.00,,,0.00,vanprod-2.3,2013-02-24 15:35:00,
2013-02-24 09:40:00,6.9,2.8,30.05,NNW,342,0.0,2.0,83,0.00,,,0.00,vanprod-2.3,2013-02-24 15:40:00,
2013-02-24 09:45:00,7.4,3.3,30.05,NNW,342,1.0,2.0,83,0.00,,,0.00,vanprod-2.3,2013-02-24 15:45:00,
2013-02-24 09:50:00,7.9,3.6,30.05,NNW,342,1.0,2.0,82,0.00,,,0.00,vanprod-2.3,2013-02-24 15:50:00,
2013-02-24 09:55:00,8.5,4.4,30.05,NNW,342,0.0,0.0,83,0.00,,,0.00,vanprod-2.3,2013-02-24 15:55:00,
2013-02-24 10:00:00,9.5,5.4,30.05,NNW,342,0.0,1.0,83,0.00,,,0.00,vanprod-2.3,2013-02-24 16:00:00,
2013-02-24 10:05:00,10.6,6.2,30.05,NNW,342,0.0,0.0,82,0.00,,,0.00,vanprod-2.3,2013-02-24 16:05:00,
2013-02-24 10:10:00,11.4,6.7,30.05,NNW,342,0.0,1.0,81,0.00,,,0.00,vanprod-2.3,2013-02-24 16:10:00,
2013-02-24 10:15:00,11.9,6.7,30.05,NNW,342,2.0,2.0,79,0.00,,,0.00,vanprod-2.3,2013-02-24 16:15:00,
2013-02-24 10:20:00,12.3,6.8,30.05,NNW,342,1.0,0.0,78,0.00,,,0.00,vanprod-2.3,2013-02-24 16:20:00,
2013-02-24 10:25:00,12.8,7.0,30.05,NNW,342,1.0,2.0,77,0.00,,,0.00,vanprod-2.3,2013-02-24 16:25:00,
2013-02-24 10:30:00,13.3,7.2,30.05,NNW,342,0.0,1.0,76,0.00,,,0.00,vanprod-2.3,2013-02-24 16:30:00,
2013-02-24 10:35:00,13.9,7.5,30.05,NNW,342,0.0,2.0,75,0.00,,,0.00,vanprod-2.3,2013-02-24 16:35:00,
2013-02-24 10:40:00,14.1,7.4,30.05,NNW,342,1.0,2.0,74,0.00,,,0.00,vanprod-2.3,2013-02-24 16:40:00,
2013-02-24 10:45:00,14.1,7.4,30.05,NNW,342,0.0,2.0,74,0.00,,,0.00,vanprod-2.3,2013-02-24 16:45:00,
2013-02-24 10:50:00,13.9,7.2,30.05,NNW,342,1.0,1.0,74,0.00,,,0.00,vanprod-2.3,2013-02-24 16:50:00,
2013-02-24 10:55:00,14.3,7.5,30.06,NNW,342,1.0,0.0,74,0.00,,,0.00,vanprod-2.3,2013-02-24 16:55:00,
2013-02-24 11:00:00,15.2,8.4,30.06,NNW,342,1.0,2.0,74,0.00,,,0.00,vanprod-2.3,2013-02-24 17:00:00,
2013-02-24 11:05:00,15.9,8.5,30.06,NNW,342,1.0,3.0,72,0.00,,,0.00,vanprod-2.3,2013-02-24 17:05:00,
2013-02-24 11:10:00,16.2,8.5,30.05,NNW,342,1.0,2.0,71,0.00,,,0.00,vanprod-2.3,2013-02-24 17:10:00,
2013-02-24 11:15:00,17.2,9.4,30.05,NNW,342,2.0,2.0,71,0.00,,,0.00,vanprod-2.3,2013-02-24 17:15:00,
2013-02-24 11:20:00,18.4,10.6,30.05,NNW,342,0.0,0.0,71,0.00,,,0.00,vanprod-2.3,2013-02-24 17:20:00,
2013-02-24 11:25:00,19.5,10.7,30.06,NNW,342,1.0,1.0,68,0.00,,,0.00,vanprod-2.3,2013-02-24 17:25:00,
2013-02-24 11:30:00,19.7,10.5,30.06,NNW,342,1.0,2.0,67,0.00,,,0.00,vanprod-2.3,2013-02-24 17:30:00,
2013-02-24 11:35:00,19.4,10.2,30.06,NNW,342,2.0,3.0,67,0.00,,,0.00,vanprod-2.3,2013-02-24 17:35:00,
2013-02-24 11:40:00,19.5,10.7,30.06,NNW,342,1.0,2.0,68,0.00,,,0.00,vanprod-2.3,2013-02-24 17:40:00,
2013-02-24 11:45:00,19.7,10.2,30.06,NNW,342,1.0,2.0,66,0.00,,,0.00,vanprod-2.3,2013-02-24 17:45:00,
2013-02-24 11:50:00,20.5,10.6,30.06,NNW,342,0.0,1.0,65,0.00,,,0.00,vanprod-2.3,2013-02-24 17:50:00,
2013-02-24 11:55:00,20.8,10.9,30.06,NNW,342,1.0,2.0,65,0.00,,,0.00,vanprod-2.3,2013-02-24 17:55:00,
2013-02-24 12:00:00,20.8,10.6,30.06,NNW,342,1.0,1.0,64,0.00,,,0.00,vanprod-2.3,2013-02-24 18:00:00,
2013-02-24 12:05:00,20.8,10.6,30.06,NNW,342,2.0,3.0,64,0.00,,,0.00,vanprod-2.3,2013-02-24 18:05:00,
2013-02-24 12:10:00,20.9,10.7,30.06,NNW,342,2.0,2.0,64,0.00,,,0.00,vanprod-2.3,2013-02-24 18:10:00,
2013-02-24 12:15:00,21.6,11.0,30.06,NNW,342,1.0,2.0,63,0.00,,,0.00,vanprod-2.3,2013-02-24 18:15:00,
2013-02-24 12:20:00,22.0,11.0,30.06,NNW,342,2.0,3.0,62,0.00,,,0.00,vanprod-2.3,2013-02-24 18:20:00,
2013-02-24 12:25:00,22.4,12.1,30.06,NNW,342,1.0,2.0,64,0.00,,,0.00,vanprod-2.3,2013-02-24 18:25:00,
2013-02-24 12:30:00,22.5,11.5,30.06,NNW,342,1.0,0.0,62,0.00,,,0.00,vanprod-2.3,2013-02-24 18:30:00,
2013-02-24 12:35:00,22.8,11.7,30.06,NNW,342,1.0,1.0,62,0.00,,,0.00,vanprod-2.3,2013-02-24 18:35:00,
2013-02-24 12:40:00,22.8,11.7,30.06,NNW,342,1.0,3.0,62,0.00,,,0.00,vanprod-2.3,2013-02-24 18:40:00,
2013-02-24 12:45:00,22.7,11.7,30.06,NNW,342,1.0,1.0,62,0.00,,,0.00,vanprod-2.3,2013-02-24 18:45:00,
2013-02-24 12:50:00,22.5,11.5,30.06,NNW,342,0.0,0.0,62,0.00,,,0.00,vanprod-2.3,2013-02-24 18:50:00,
2013-02-24 12:55:00,22.2,11.2,30.06,NNW,342,2.0,3.0,62,0.00,,,0.00,vanprod-2.3,2013-02-24 18:55:00,
2013-02-24 13:00:00,21.9,11.6,30.06,NNW,342,1.0,2.0,64,0.00,,,0.00,vanprod-2.3,2013-02-24 19:00:00,
2013-02-24 13:05:00,21.9,11.6,30.06,NNW,342,2.0,2.0,64,0.00,,,0.00,vanprod-2.3,2013-02-24 19:05:00,
2013-02-24 13:10:00,21.6,11.3,30.06,NNW,342,2.0,2.0,64,0.00,,,0.00,vanprod-2.3,2013-02-24 19:10:00,
2013-02-24 13:15:00,21.4,11.8,30.05,NNW,342,1.0,3.0,66,0.00,,,0.00,vanprod-2.3,2013-02-24 19:15:00,
2013-02-24 13:20:00,21.4,11.5,30.06,NNW,342,2.0,2.0,65,0.00,,,0.00,vanprod-2.3,2013-02-24 19:20:00,
2013-02-24 13:25:00,21.3,11.4,30.06,NNW,342,2.0,3.0,65,0.00,,,0.00,vanprod-2.3,2013-02-24 19:25:00,
2013-02-24 13:30:00,20.6,11.1,30.06,NNW,342,3.0,3.0,66,0.00,,,0.00,vanprod-2.3,2013-02-24 19:30:00,
2013-02-24 13:35:00,20.1,11.2,30.05,NNW,342,1.0,0.0,68,0.00,,,0.00,vanprod-2.3,2013-02-24 19:35:00,
2013-02-24 13:40:00,20.1,11.2,30.05,NNW,342,2.0,2.0,68,0.00,,,0.00,vanprod-2.3,2013-02-24 19:40:00,
2013-02-24 13:45:00,20.0,11.2,30.05,NNW,342,2.0,2.0,68,0.00,,,0.00,vanprod-2.3,2013-02-24 19:45:00,
2013-02-24 13:50:00,19.8,11.0,30.05,NNW,342,1.0,2.0,68,0.00,,,0.00,vanprod-2.3,2013-02-24 19:50:00,
2013-02-24 13:55:00,20.0,11.2,30.05,NNW,342,1.0,0.0,68,0.00,,,0.00,vanprod-2.3,2013-02-24 19:55:00,
2013-02-24 14:00:00,20.5,11.6,30.05,NNW,342,1.0,1.0,68,0.00,,,0.00,vanprod-2.3,2013-02-24 20:00:00,
2013-02-24 14:05:00,20.6,11.4,30.05,NNW,342,0.0,0.0,67,0.00,,,0.00,vanprod-2.3,2013-02-24 20:05:00,
2013-02-24 14:10:00,20.6,11.4,30.05,NNW,342,2.0,2.0,67,0.00,,,0.00,vanprod-2.3,2013-02-24 20:10:00,
2013-02-24 14:15:00,20.8,11.9,30.04,NNW,342,0.0,1.0,68,0.00,,,0.00,vanprod-2.3,2013-02-24 20:15:00,
2013-02-24 14:20:00,21.3,12.1,30.04,NNW,342,1.0,2.0,67,0.00,,,0.00,vanprod-2.3,2013-02-24 20:20:00,
2013-02-24 14:25:00,21.6,11.7,30.04,NNW,342,0.0,0.0,65,0.00,,,0.00,vanprod-2.3,2013-02-24 20:25:00,
2013-02-24 14:30:00,21.7,11.8,30.04,NNW,342,0.0,1.0,65,0.00,,,0.00,vanprod-2.3,2013-02-24 20:30:00,
2013-02-24 14:35:00,21.7,12.1,30.04,NNW,342,1.0,1.0,66,0.00,,,0.00,vanprod-2.3,2013-02-24 20:35:00,
2013-02-24 14:40:00,21.9,12.3,30.04,NNW,342,1.0,1.0,66,0.00,,,0.00,vanprod-2.3,2013-02-24 20:40:00,
2013-02-24 14:45:00,21.7,12.1,30.03,NNW,342,1.0,2.0,66,0.00,,,0.00,vanprod-2.3,2013-02-24 20:45:00,
2013-02-24 14:50:00,21.6,12.4,30.03,NNW,342,1.0,2.0,67,0.00,,,0.00,vanprod-2.3,2013-02-24 20:50:00,
2013-02-24 14:55:00,21.7,12.4,30.03,NNW,342,1.0,2.0,67,0.00,,,0.00,vanprod-2.3,2013-02-24 20:55:00,
2013-02-24 15:00:00,21.6,12.0,30.03,NNW,342,1.0,2.0,66,0.00,,,0.00,vanprod-2.3,2013-02-24 21:00:00,
2013-02-24 15:05:00,21.4,11.8,30.03,NNW,342,1.0,2.0,66,0.00,,,0.00,vanprod-2.3,2013-02-24 21:05:00,
2013-02-24 15:10:00,21.3,11.7,30.03,NNW,342,2.0,2.0,66,0.00,,,0.00,vanprod-2.3,2013-02-24 21:10:00,
2013-02-24 15:15:00,20.9,11.7,30.03,NNW,342,1.0,1.0,67,0.00,,,0.00,vanprod-2.3,2013-02-24 21:15:00,
2013-02-24 15:20:00,20.5,12.0,30.03,NNW,342,1.0,2.0,69,0.00,,,0.00,vanprod-2.3,2013-02-24 21:20:00,
2013-02-24 15:25:00,20.0,11.8,30.03,NNW,342,2.0,3.0,70,0.00,,,0.00,vanprod-2.3,2013-02-24 21:25:00,
2013-02-24 15:30:00,19.7,11.8,30.03,NNW,342,2.0,2.0,71,0.00,,,0.00,vanprod-2.3,2013-02-24 21:30:00,
2013-02-24 15:35:00,19.8,11.9,30.03,NNW,342,2.0,5.0,71,0.00,,,0.00,vanprod-2.3,2013-02-24 21:35:00,
2013-02-24 15:40:00,20.1,12.2,30.03,NNW,342,1.0,1.0,71,0.00,,,0.00,vanprod-2.3,2013-02-24 21:40:00,
2013-02-24 15:45:00,20.8,12.6,30.03,NNW,342,1.0,2.0,70,0.00,,,0.00,vanprod-2.3,2013-02-24 21:45:00,
2013-02-24 15:50:00,21.4,12.8,30.03,NNW,342,3.0,5.0,69,0.00,,,0.00,vanprod-2.3,2013-02-24 21:50:00,
2013-02-24 15:55:00,21.3,12.7,30.03,NNW,342,3.0,3.0,69,0.00,,,0.00,vanprod-2.3,2013-02-24 21:55:00,
2013-02-24 16:00:00,21.3,12.7,30.03,NNW,342,2.0,3.0,69,0.00,,,0.00,vanprod-2.3,2013-02-24 22:00:00,
2013-02-24 16:05:00,21.3,12.7,30.03,NNW,342,1.0,1.0,69,0.00,,,0.00,vanprod-2.3,2013-02-24 22:05:00,
2013-02-24 16:10:00,21.1,12.5,30.03,NNW,342,2.0,2.0,69,0.00,,,0.00,vanprod-2.3,2013-02-24 22:10:00,
2013-02-24 16:15:00,20.8,12.6,30.03,NNW,342,2.0,3.0,70,0.00,,,0.00,vanprod-2.3,2013-02-24 22:15:00,
2013-02-24 16:20:00,20.6,12.4,30.03,NNW,342,2.0,3.0,70,0.00,,,0.00,vanprod-2.3,2013-02-24 22:20:00,
2013-02-24 16:25:00,20.3,12.1,30.03,NNW,342,1.0,2.0,70,0.00,,,0.00,vanprod-2.3,2013-02-24 22:25:00,
2013-02-24 16:30:00,20.3,12.4,30.03,NNW,342,1.0,2.0,71,0.00,,,0.00,vanprod-2.3,2013-02-24 22:30:00,
2013-02-24 16:35:00,20.1,12.2,30.03,NNW,342,2.0,2.0,71,0.00,,,0.00,vanprod-2.3,2013-02-24 22:35:00,
2013-02-24 16:40:00,20.1,12.2,30.03,NNW,342,0.0,2.0,71,0.00,,,0.00,vanprod-2.3,2013-02-24 22:40:00,
2013-02-24 16:45:00,20.0,12.4,30.03,NNW,342,1.0,1.0,72,0.00,,,0.00,vanprod-2.3,2013-02-24 22:45:00,
2013-02-24 16:50:00,19.8,12.2,30.03,NNW,342,1.0,0.0,72,0.00,,,0.00,vanprod-2.3,2013-02-24 22:50:00,
2013-02-24 16:55:00,19.7,12.5,30.03,NNW,342,0.0,1.0,73,0.00,,,0.00,vanprod-2.3,2013-02-24 22:55:00,
2013-02-24 17:00:00,19.7,12.2,30.03,NNW,342,1.0,1.0,72,0.00,,,0.00,vanprod-2.3,2013-02-24 23:00:00,
2013-02-24 17:05:00,19.7,12.2,30.03,NNW,342,1.0,2.0,72,0.00,,,0.00,vanprod-2.3,2013-02-24 23:05:00,
2013-02-24 17:10:00,19.5,12.3,30.03,NNW,342,1.0,1.0,73,0.00,,,0.00,vanprod-2.3,2013-02-24 23:10:00,
2013-02-24 17:15:00,19.4,12.5,30.03,NNW,342,0.0,1.0,74,0.00,,,0.00,vanprod-2.3,2013-02-24 23:15:00,
2013-02-24 17:20:00,19.2,12.3,30.04,NNW,342,2.0,3.0,74,0.00,,,0.00,vanprod-2.3,2013-02-24 23:20:00,
2013-02-24 17:25:00,19.2,12.3,30.04,NNW,342,1.0,0.0,74,0.00,,,0.00,vanprod-2.3,2013-02-24 23:25:00,
2013-02-24 17:30:00,19.2,12.3,30.04,NNW,342,1.0,1.0,74,0.00,,,0.00,vanprod-2.3,2013-02-24 23:30:00,
2013-02-24 17:35:00,19.0,12.1,30.04,NNW,342,0.0,0.0,74,0.00,,,0.00,vanprod-2.3,2013-02-24 23:35:00,
2013-02-24 17:40:00,18.9,12.0,30.04,NNW,342,0.0,0.0,74,0.00,,,0.00,vanprod-2.3,2013-02-24 23:40:00,
2013-02-24 17:45:00,18.7,12.1,30.04,NNW,342,1.0,0.0,75,0.00,,,0.00,vanprod-2.3,2013-02-24 23:45:00,
2013-02-24 17:50:00,18.7,12.1,30.04,NNW,342,0.0,1.0,75,0.00,,,0.00,vanprod-2.3,2013-02-24 23:50:00,
2013-02-24 17:55:00,18.6,12.0,30.04,NNW,342,1.0,2.0,75,0.00,,,0.00,vanprod-2.3,2013-02-24 23:55:00,
2013-02-24 18:00:00,18.4,11.8,30.04,NNW,342,1.0,2.0,75,0.00,,,0.00,vanprod-2.3,2013-02-25 00:00:00,
2013-02-24 18:05:00,18.4,12.1,30.04,NNW,342,1.0,2.0,76,0.00,,,0.00,vanprod-2.3,2013-02-25 00:05:00,
2013-02-24 18:10:00,18.3,12.0,30.05,NNW,342,0.0,0.0,76,0.00,,,0.00,vanprod-2.3,2013-02-25 00:10:00,
2013-02-24 18:15:00,18.1,11.8,30.05,NNW,342,0.0,0.0,76,0.00,,,0.00,vanprod-2.3,2013-02-25 00:15:00,
2013-02-24 18:20:00,17.8,11.5,30.05,NNW,342,0.0,0.0,76,0.00,,,0.00,vanprod-2.3,2013-02-25 00:20:00,
2013-02-24 18:25:00,17.6,11.6,30.05,NNW,342,0.0,0.0,77,0.00,,,0.00,vanprod-2.3,2013-02-25 00:25:00,
2013-02-24 18:30:00,17.3,11.3,30.05,NNW,342,0.0,0.0,77,0.00,,,0.00,vanprod-2.3,2013-02-25 00:30:00,
2013-02-24 18:35:00,17.2,11.2,30.05,NNW,342,0.0,0.0,77,0.00,,,0.00,vanprod-2.3,2013-02-25 00:35:00,
2013-02-24 18:40:00,16.8,11.1,30.05,NNW,342,0.0,0.0,78,0.00,,,0.00,vanprod-2.3,2013-02-25 00:40:00,
2013-02-24 18:45:00,16.7,11.0,30.05,NNW,342,0.0,0.0,78,0.00,,,0.00,vanprod-2.3,2013-02-25 00:45:00,
2013-02-24 18:50:00,16.4,10.8,30.05,NNW,342,0.0,0.0,78,0.00,,,0.00,vanprod-2.3,2013-02-25 00:50:00,
2013-02-24 18:55:00,16.2,10.6,30.05,NNW,342,0.0,0.0,78,0.00,,,0.00,vanprod-2.3,2013-02-25 00:55:00,
2013-02-24 19:00:00,16.0,10.4,30.06,NNW,342,0.0,0.0,78,0.00,,,0.00,vanprod-2.3,2013-02-25 01:00:00,
2013-02-24 19:05:00,15.9,10.6,30.06,NNW,342,0.0,0.0,79,0.00,,,0.00,vanprod-2.3,2013-02-25 01:05:00,
2013-02-24 19:10:00,15.9,10.6,30.06,NNW,342,0.0,0.0,79,0.00,,,0.00,vanprod-2.3,2013-02-25 01:10:00,
2013-02-24 19:15:00,15.7,10.4,30.07,NNW,342,0.0,0.0,79,0.00,,,0.00,vanprod-2.3,2013-02-25 01:15:00,
2013-02-24 19:20:00,15.6,10.5,30.07,NNW,342,0.0,0.0,80,0.00,,,0.00,vanprod-2.3,2013-02-25 01:20:00,
2013-02-24 19:25:00,15.4,10.3,30.07,NNW,342,0.0,0.0,80,0.00,,,0.00,vanprod-2.3,2013-02-25 01:25:00,
2013-02-24 19:30:00,15.4,10.3,30.07,NNW,342,0.0,0.0,80,0.00,,,0.00,vanprod-2.3,2013-02-25 01:30:00,
2013-02-24 19:35:00,15.2,10.2,30.06,NNW,342,0.0,0.0,80,0.00,,,0.00,vanprod-2.3,2013-02-25 01:35:00,
2013-02-24 19:40:00,14.9,9.9,30.06,NNW,342,0.0,0.0,80,0.00,,,0.00,vanprod-2.3,2013-02-25 01:40:00,
2013-02-24 19:45:00,14.7,9.9,30.07,NNW,342,0.0,0.0,81,0.00,,,0.00,vanprod-2.3,2013-02-25 01:45:00,
2013-02-24 19:50:00,14.7,9.9,30.06,NNW,342,0.0,0.0,81,0.00,,,0.00,vanprod-2.3,2013-02-25 01:50:00,
2013-02-24 19:55:00,14.6,9.8,30.06,NNW,342,0.0,0.0,81,0.00,,,0.00,vanprod-2.3,2013-02-25 01:55:00,
2013-02-24 20:00:00,14.4,9.6,30.06,NNW,342,0.0,0.0,81,0.00,,,0.00,vanprod-2.3,2013-02-25 02:00:00,
2013-02-24 20:05:00,14.4,9.9,30.06,NNW,342,0.0,0.0,82,0.00,,,0.00,vanprod-2.3,2013-02-25 02:05:00,
2013-02-24 20:10:00,14.3,9.8,30.06,NNW,342,0.0,0.0,82,0.00,,,0.00,vanprod-2.3,2013-02-25 02:10:00,
2013-02-24 20:15:00,14.1,9.6,30.06,NNW,342,0.0,0.0,82,0.00,,,0.00,vanprod-2.3,2013-02-25 02:15:00,
2013-02-24 20:20:00,13.9,9.4,30.06,NNW,342,0.0,0.0,82,0.00,,,0.00,vanprod-2.3,2013-02-25 02:20:00,
2013-02-24 20:25:00,13.6,9.4,30.06,NNW,342,0.0,0.0,83,0.00,,,0.00,vanprod-2.3,2013-02-25 02:25:00,
2013-02-24 20:30:00,13.6,9.4,30.06,NNW,342,0.0,0.0,83,0.00,,,0.00,vanprod-2.3,2013-02-25 02:30:00,
2013-02-24 20:35:00,13.6,9.4,30.06,NNW,342,0.0,0.0,83,0.00,,,0.00,vanprod-2.3,2013-02-25 02:35:00,
2013-02-24 20:40:00,13.3,9.1,30.06,NNW,342,0.0,0.0,83,0.00,,,0.00,vanprod-2.3,2013-02-25 02:40:00,
2013-02-24 20:45:00,13.0,8.8,30.06,NNW,342,0.0,0.0,83,0.00,,,0.00,vanprod-2.3,2013-02-25 02:45:00,
2013-02-24 20:50:00,12.8,8.6,30.06,NNW,342,0.0,0.0,83,0.00,,,0.00,vanprod-2.3,2013-02-25 02:50:00,
2013-02-24 20:55:00,12.6,8.2,30.07,NNW,342,0.0,0.0,82,0.00,,,0.00,vanprod-2.3,2013-02-25 02:55:00,
2013-02-24 21:00:00,12.4,8.2,30.06,NNW,342,0.0,0.0,83,0.00,,,0.00,vanprod-2.3,2013-02-25 03:00:00,
2013-02-24 21:05:00,12.3,8.1,30.06,NNW,342,0.0,0.0,83,0.00,,,0.00,vanprod-2.3,2013-02-25 03:05:00,
2013-02-24 21:10:00,12.1,7.9,30.06,NNW,342,0.0,0.0,83,0.00,,,0.00,vanprod-2.3,2013-02-25 03:10:00,
2013-02-24 21:15:00,12.1,7.9,30.06,NNW,342,0.0,0.0,83,0.00,,,0.00,vanprod-2.3,2013-02-25 03:15:00,
2013-02-24 21:20:00,12.1,8.2,30.07,NNW,342,0.0,0.0,84,0.00,,,0.00,vanprod-2.3,2013-02-25 03:20:00,
2013-02-24 21:25:00,12.1,8.2,30.07,NNW,342,0.0,0.0,84,0.00,,,0.00,vanprod-2.3,2013-02-25 03:25:00,
2013-02-24 21:30:00,11.9,8.0,30.07,NNW,342,0.0,0.0,84,0.00,,,0.00,vanprod-2.3,2013-02-25 03:30:00,
2013-02-24 21:35:00,11.9,8.0,30.07,NNW,342,0.0,0.0,84,0.00,,,0.00,vanprod-2.3,2013-02-25 03:35:00,
2013-02-24 21:40:00,11.9,8.0,30.08,NNW,342,0.0,0.0,84,0.00,,,0.00,vanprod-2.3,2013-02-25 03:40:00,
2013-02-24 21:45:00,11.8,7.6,30.08,NNW,342,0.0,0.0,83,0.00,,,0.00,vanprod-2.3,2013-02-25 03:45:00,
2013-02-24 21:50:00,11.6,7.4,30.08,NNW,342,0.0,0.0,83,0.00,,,0.00,vanprod-2.3,2013-02-25 03:50:00,
2013-02-24 21:55:00,11.2,7.1,30.08,NNW,342,0.0,0.0,83,0.00,,,0.00,vanprod-2.3,2013-02-25 03:55:00,
2013-02-24 22:00:00,11.2,7.1,30.08,NNW,342,0.0,0.0,83,0.00,,,0.00,vanprod-2.3,2013-02-25 04:00:00,
2013-02-24 22:05:00,11.1,7.2,30.08,NNW,342,0.0,0.0,84,0.00,,,0.00,vanprod-2.3,2013-02-25 04:05:00,
2013-02-24 22:10:00,11.2,7.6,30.08,NNW,342,0.0,0.0,85,0.00,,,0.00,vanprod-2.3,2013-02-25 04:10:00,
2013-02-24 22:15:00,11.4,8.0,30.08,NNW,342,0.0,0.0,86,0.00,,,0.00,vanprod-2.3,2013-02-25 04:15:00,
2013-02-24 22:20:00,11.4,8.0,30.08,NNW,342,0.0,0.0,86,0.00,,,0.00,vanprod-2.3,2013-02-25 04:20:00,
2013-02-24 22:25:00,11.2,7.6,30.08,NNW,342,0.0,0.0,85,0.00,,,0.00,vanprod-2.3,2013-02-25 04:25:00,
2013-02-24 22:30:00,11.2,7.6,30.08,NNW,342,0.0,0.0,85,0.00,,,0.00,vanprod-2.3,2013-02-25 04:30:00,
2013-02-24 22:35:00,10.9,7.0,30.08,NNW,342,0.0,0.0,84,0.00,,,0.00,vanprod-2.3,2013-02-25 04:35:00,
2013-02-24 22:40:00,10.7,6.8,30.08,NNW,342,0.0,0.0,84,0.00,,,0.00,vanprod-2.3,2013-02-25 04:40:00,
2013-02-24 22:45:00,10.4,6.5,30.08,NNW,342,0.0,0.0,84,0.00,,,0.00,vanprod-2.3,2013-02-25 04:45:00,
2013-02-24 22:50:00,10.2,6.6,30.08,NNW,342,1.0,2.0,85,0.00,,,0.00,vanprod-2.3,2013-02-25 04:50:00,
2013-02-24 22:55:00,10.2,6.9,30.09,NNW,342,0.0,0.0,86,0.00,,,0.00,vanprod-2.3,2013-02-25 04:55:00,
2013-02-24 23:00:00,10.2,6.9,30.09,NNW,342,1.0,2.0,86,0.00,,,0.00,vanprod-2.3,2013-02-25 05:00:00,
2013-02-24 23:05:00,10.0,6.9,30.08,NNW,342,1.0,2.0,87,0.00,,,0.00,vanprod-2.3,2013-02-25 05:05:00,
2013-02-24 23:10:00,9.7,6.4,30.08,NNW,342,0.0,2.0,86,0.00,,,0.00,vanprod-2.3,2013-02-25 05:10:00,
2013-02-24 23:15:00,9.7,6.6,30.08,NNW,342,0.0,1.0,87,0.00,,,0.00,vanprod-2.3,2013-02-25 05:15:00,
2013-02-24 23:20:00,9.5,6.4,30.08,NNW,342,0.0,0.0,87,0.00,,,0.00,vanprod-2.3,2013-02-25 05:20:00,
2013-02-24 23:25:00,9.7,6.6,30.08,NNW,342,0.0,0.0,87,0.00,,,0.00,vanprod-2.3,2013-02-25 05:25:00,
2013-02-24 23:30:00,10.2,7.6,30.08,NNW,342,0.0,1.0,89,0.00,,,0.00,vanprod-2.3,2013-02-25 05:30:00,
2013-02-24 23:35:00,10.7,8.1,30.08,NNW,342,0.0,0.0,89,0.00,,,0.00,vanprod-2.3,2013-02-25 05:35:00,
2013-02-24 23:40:00,11.1,8.7,30.08,NNW,342,0.0,0.0,90,0.00,,,0.00,vanprod-2.3,2013-02-25 05:40:00,
2013-02-24 23:45:00,11.4,9.0,30.08,NNW,342,0.0,0.0,90,0.00,,,0.00,vanprod-2.3,2013-02-25 05:45:00,
2013-02-24 23:50:00,11.8,9.4,30.07,NNW,342,0.0,1.0,90,0.00,,,0.00,vanprod-2.3,2013-02-25 05:50:00,
2013-02-24 23:55:00,12.3,9.9,30.07,NNW,342,1.0,1.0,90,0.00,,,0.00,vanprod-2.3,2013-02-25 05:55:00,